Theta_e
342 345 347 346 347 348 348 348 348 350 350 349 349 351 351 351 349 349 349 348 348 347 348 350 350 350 351 351 352 352 351 351 351 350 349 347 347 346 345 343 341 342 344 345 344 344 343 343 343 344 345 344 343 342 341 340 338 337 337 336 333 333 332 330 326 326 327 330 330 327 328 327 325 325 324 324 324 325 321 325 324 324 323 321 320
340 343 346 346 347 347 348 348 348 349 348 349 349 350 348 350 351 350 348 348 348 347 348 349 348 347 348 350 350 351 351 350 351 349 347 346 347 346 345 343 342 342 343 343 344 344 345 343 343 344 343 343 342 340 340 340 337 335 335 334 333 332 335 331 328 326 323 326 328 330 327 327 324 326 324 323 324 324 322 323 324 323 322 322 321
343 343 345 346 347 348 348 347 348 348 348 348 348 348 348 350 351 350 349 350 348 348 348 348 347 346 347 350 350 350 350 350 351 350 348 347 346 347 346 344 342 342 342 342 343 344 344 344 343 344 344 343 343 343 342 337 336 335 335 335 333 333 333 332 330 326 325 324 329 327 327 326 326 324 324 325 324 324 322 322 321 322 322 321 321
341 344 345 345 347 347 348 348 349 348 347 348 348 349 348 347 350 350 349 350 347 348 348 348 348 347 347 349 349 349 349 349 348 349 348 348 347 345 345 345 343 344 343 343 343 344 344 344 344 345 344 343 342 342 340 338 337 335 334 333 334 333 334 333 332 329 327 324 327 326 327 326 326 326 325 325 324 324 323 323 323 322 322 321 321
336 341 343 345 346 346 347 348 348 348 348 348 349 349 349 349 350 349 349 348 348 348 348 349 348 347 347 347 348 348 349 348 347 348 349 349 348 347 345 344 345 344 345 344 342 344 344 344 344 345 344 342 343 342 340 338 335 334 333 333 333 334 333 332 331 330 328 326 325 327 328 326 326 326 325 323 323 324 324 322 321 321 322 322 321
326 336 342 343 344 345 346 347 347 348 348 348 349 349 348 347 349 350 348 347 347 346 346 346 346 345 345 345 346 347 349 349 347 347 347 348 348 347 346 345 344 344 344 344 344 345 345 344 344 344 344 343 342 342 341 339 338 336 334 334 334 333 332 331 330 329 329 327 327 325 326 325 325 325 325 324 323 322 321 321 322 321 320 321 321
323 326 337 342 343 344 345 346 346 347 349 349 348 348 348 348 349 348 348 348 347 346 345 345 346 346 345 344 345 345 346 346 347 347 347 347 347 347 346 346 344 344 343 343 344 345 345 344 345 345 344 344 343 343 341 341 337 335 334 334 335 332 329 328 328 329 328 326 326 327 325 326 326 322 324 325 325 323 320 319 318 320 320 320 319
321 322 326 336 342 343 344 346 346 347 347 348 347 348 348 349 349 348 347 346 346 345 345 346 347 347 347 346 346 346 345 345 346 347 347 346 346 346 347 346 343 343 344 343 344 344 345 346 346 346 345 345 344 344 343 340 337 335 334 335 335 331 328 326 326 326 326 325 326 324 325 323 323 325 325 324 322 321 322 320 317 317 319 320 321
320 322 324 329 339 343 344 346 347 347 347 347 347 347 347 348 348 348 347 346 346 345 346 346 346 346 347 348 347 346 346 345 345 345 345 344 345 346 345 345 343 343 342 343 343 343 344 346 346 347 347 342 333 335 333 332 339 336 336 335 333 330 328 326 326 325 326 326 325 325 323 322 322 323 320 320 320 319 322 322 320 320 319 319 320
319 321 323 325 331 341 343 344 345 346 345 345 346 346 347 347 347 347 346 346 345 345 346 344 345 345 345 346 347 346 346 346 337 326 328 343 344 344 345 345 344 343 342 341 342 343 343 344 346 342 336 332 325 320 317 319 325 337 339 336 333 330 327 326 326 326 327 325 324 323 321 321 321 323 321 322 324 325 322 322 319 320 319 318 319
319 320 321 324 325 330 341 343 344 344 345 345 345 345 345 346 346 346 346 346 345 345 345 344 344 346 345 346 346 345 346 344 320 313 315 320 339 344 346 346 346 344 343 342 342 342 343 342 344 343 337 328 330 312 312 312 313 314 316 321 325 331 328 326 326 327 325 325 325 325 323 323 323 324 323 323 324 324 323 322 321 321 318 315 313
317 318 320 323 324 323 330 342 342 343 344 344 345 344 345 345 345 345 346 346 346 346 345 344 344 345 346 347 347 346 347 329 309 310 312 312 322 344 346 346 346 345 344 343 344 343 341 341 342 345 344 344 342 330 317 310 309 308 305 308 310 310 313 329 329 328 327 326 326 326 326 324 325 325 324 325 324 324 325 323 322 320 319 317 316
317 317 318 321 323 323 324 334 342 342 344 344 344 345 345 344 344 344 344 346 346 344 344 344 346 346 347 346 347 348 348 319 307 308 309 309 311 329 345 345 345 345 345 345 345 343 342 342 342 345 342 332 335 335 329 325 311 308 308 307 308 306 304 302 303 328 332 329 328 328 327 327 326 325 327 326 327 324 324 322 322 321 321 319 319
317 316 317 318 321 324 323 324 336 342 343 344 344 344 343 343 345 345 345 345 344 344 344 344 344 345 347 347 347 348 349 318 307 307 308 306 308 317 346 345 345 345 346 346 345 344 343 341 342 341 343 340 338 338 334 332 329 325 323 325 328 322 308 303 303 301 310 329 331 330 331 331 328 329 329 329 326 324 323 322 324 322 322 321 324
316 316 317 318 320 323 323 322 327 339 342 343 343 343 343 344 344 345 344 344 344 344 344 344 344 345 347 348 348 348 349 310 307 305 305 305 305 311 346 345 346 346 347 346 345 345 345 342 342 341 342 341 338 336 335 332 329 326 325 325 327 328 328 329 329 330 331 331 332 333 333 333 333 333 332 329 329 328 328 326 326 326 326 327 326
315 316 316 317 318 322 323 322 324 332 341 342 342 341 343 344 344 345 345 345 344 344 345 345 344 345 348 349 349 348 356 302 306 303 304 305 303 330 343 344 344 345 345 346 345 344 343 343 343 342 343 342 326 312 321 332 330 326 324 325 327 328 329 324 316 318 328 332 332 333 335 340 320 334 333 330 329 330 328 328 328 327 323 321 319
315 315 315 316 318 321 324 324 323 328 337 341 341 342 342 343 344 345 344 343 343 344 345 344 344 344 345 346 349 349 353 310 303 302 303 302 309 338 342 341 343 344 345 345 345 344 343 343 342 341 341 342 320 306 307 318 332 329 326 325 326 327 328 331 313 307 308 307 307 307 302 299 302 309 308 308 323 326 327 324 322 323 321 318 319
315 315 315 316 318 321 325 325 323 325 333 338 340 342 343 344 344 345 343 343 343 343 344 343 344 345 344 346 347 349 351 319 300 302 302 300 318 340 342 341 342 343 345 346 346 345 343 331 335 342 340 341 308 305 303 319 332 330 329 327 326 326 328 331 331 325 304 304 303 302 300 296 296 298 303 303 304 314 326 321 324 323 321 320 317
314 315 315 316 317 320 325 325 323 325 332 337 342 342 342 342 343 345 344 344 343 344 343 343 343 344 345 346 336 344 348 325 300 301 301 301 319 341 342 342 341 342 342 343 344 344 343 332 323 328 335 331 301 304 302 317 332 331 330 329 327 327 329 332 330 329 328 326 325 324 320 310 318 325 323 299 300 312 326 327 325 322 319 319 319
314 316 316 317 318 319 325 327 324 326 333 338 341 342 343 343 344 343 343 342 341 341 342 342 343 343 344 345 346 345 347 346 313 300 301 300 309 340 343 340 340 341 342 341 341 342 341 342 328 307 307 307 299 301 302 306 329 334 333 330 329 328 332 332 331 331 331 328 328 328 327 328 328 327 329 325 318 320 324 327 327 325 322 319 319
315 316 316 316 317 319 325 326 326 329 333 338 341 342 343 343 343 342 342 342 341 340 341 343 343 344 345 346 346 346 346 348 321 299 301 301 304 319 344 342 342 342 341 340 340 340 340 340 343 315 304 303 299 299 301 302 311 335 335 333 333 332 326 333 331 319 332 331 330 329 328 328 328 328 326 327 325 322 322 324 327 327 325 321 319
314 315 315 315 316 319 324 329 332 332 332 336 339 340 342 342 342 342 342 341 339 341 342 341 343 343 345 346 346 346 342 332 329 301 300 300 303 308 339 344 342 343 342 341 341 341 340 339 340 321 302 303 299 298 300 301 301 328 335 315 313 310 335 334 333 331 330 330 328 327 327 326 325 325 325 325 325 325 324 324 325 327 327 324 322
313 314 315 315 316 319 325 330 332 332 333 336 337 339 340 340 341 340 339 338 339 339 340 341 342 343 344 343 346 347 347 341 314 311 299 300 300 304 311 329 316 343 342 341 341 341 341 341 338 315 299 301 301 298 299 300 301 316 311 307 307 303 314 332 332 331 329 328 328 327 326 326 325 324 324 323 325 326 326 326 326 326 327 327 326
313 314 314 314 315 320 325 327 331 331 332 335 336 337 338 339 340 341 341 340 338 337 337 339 338 336 340 342 344 345 347 347 317 307 305 298 300 302 304 307 312 338 343 342 343 341 342 341 335 303 301 300 300 300 299 299 306 304 302 303 302 302 329 330 328 329 325 324 324 325 326 326 325 325 324 325 326 328 327 326 326 327 327 327 326
312 313 314 314 316 323 325 327 330 331 331 335 336 336 337 338 338 339 338 337 336 336 337 338 338 338 335 340 341 343 345 346 344 315 300 298 298 299 301 302 303 305 337 343 343 343 328 321 308 299 300 300 299 299 299 299 297 300 300 301 306 323 327 329 328 327 324 323 322 325 325 326 326 326 328 327 326 326 327 325 326 326 326 326 326
311 312 313 315 318 323 324 323 324 330 332 335 337 337 337 336 335 336 337 337 337 335 334 335 334 337 335 340 340 340 343 344 345 333 309 304 301 298 299 299 304 303 313 332 318 313 310 307 300 298 299 302 308 311 315 315 301 298 298 300 315 320 324 326 327 325 323 323 322 322 325 326 326 327 326 326 323 322 323 322 322 322 323 322 321
311 312 313 316 319 321 322 325 327 330 332 333 336 337 337 336 337 337 337 336 337 333 333 334 335 336 337 339 340 341 341 340 341 340 332 326 320 313 306 308 301 301 308 319 316 326 327 321 324 310 313 302 304 306 308 309 311 308 308 311 316 320 323 326 326 326 323 324 323 324 325 326 326 324 322 321 321 323 324 320 320 320 320 320 318
311 312 314 317 318 320 319 311 321 330 332 334 334 335 336 338 337 334 335 332 325 322 323 324 331 336 337 339 340 337 338 338 338 340 337 336 333 329 324 319 318 315 316 321 327 331 334 311 311 320 321 315 314 320 321 322 319 313 313 314 316 318 318 315 316 326 327 326 326 326 324 325 323 322 320 320 321 321 321 319 318 318 318 318 316
310 312 313 315 318 317 319 326 328 330 333 335 335 336 336 336 336 336 337 335 329 325 326 330 332 334 338 337 336 336 337 337 340 323 338 318 327 335 331 327 326 325 317 310 326 329 329 324 320 317 318 316 314 317 321 321 319 318 317 317 317 319 320 322 322 322 324 324 324 324 323 322 321 321 320 319 318 318 319 318 318 317 317 316 314
309 310 311 313 318 319 319 325 329 330 332 334 335 335 316 315 326 336 335 318 313 314 314 333 335 337 338 338 341 337 336 337 317 312 311 309 309 311 313 312 312 322 314 303 315 328 327 323 321 320 321 322 322 320 320 321 322 322 320 309 316 319 319 320 322 322 324 323 324 322 322 320 319 319 317 317 317 316 316 310 317 317 315 314 313
309 309 310 312 314 322 324 328 328 330 332 333 335 333 334 329 308 307 312 316 312 308 306 312 315 317 331 338 333 318 313 312 309 309 305 305 307 306 306 305 306 306 302 312 321 324 326 323 319 324 323 325 324 324 323 321 320 321 322 321 320 318 315 320 322 318 319 322 321 321 320 319 318 318 317 316 316 315 316 316 315 316 313 313 312
311 311 313 316 318 322 325 328 330 330 330 333 334 333 333 332 327 301 298 310 307 305 306 308 308 308 312 322 328 338 318 306 306 304 304 303 303 303 302 300 300 301 300 305 314 314 322 323 321 323 325 324 323 319 323 321 321 321 320 320 320 320 319 319 321 324 322 321 318 316 318 319 318 316 317 314 310 314 313 314 314 312 313 312 312
317 317 319 319 319 320 322 326 328 330 330 329 333 333 332 330 330 330 321 295 298 304 304 301 299 301 303 301 299 305 314 315 302 299 298 300 299 299 298 297 297 297 299 315 316 314 322 324 324 324 325 324 326 324 324 322 322 322 322 321 319 320 321 321 320 322 320 319 319 317 315 316 314 312 308 309 310 312 312 312 311 312 313 311 308
320 316 314 318 320 321 324 323 326 325 332 331 331 330 329 329 330 331 331 327 322 310 298 297 299 302 298 296 299 301 299 297 297 298 297 297 296 296 298 303 295 297 307 319 323 321 323 323 322 324 326 326 327 326 324 324 325 326 325 324 325 327 325 326 323 320 317 317 319 315 314 316 310 312 311 313 312 312 311 309 310 308 309 309 311
320 307 300 310 319 321 322 322 326 327 325 328 327 326 325 324 325 323 322 326 327 326 329 327 306 296 315 310 301 295 295 297 297 298 296 295 295 295 299 312 309 308 309 320 323 324 323 322 324 324 326 327 327 327 327 327 327 327 326 327 327 325 325 323 320 321 319 320 321 316 312 312 315 309 308 308 310 307 307 307 310 308 308 308 308
313 316 321 320 321 321 319 320 322 323 319 320 321 321 322 319 316 316 317 316 319 319 320 323 327 305 298 303 303 300 298 298 299 298 298 294 294 299 316 319 320 318 314 317 319 320 322 324 324 325 326 326 328 328 327 326 326 327 328 326 324 324 326 327 320 321 320 318 317 314 312 313 314 310 311 311 312 309 308 308 308 306 306 307 304
308 309 313 317 321 323 323 322 321 316 306 314 318 319 321 315 314 317 318 317 316 318 319 320 320 329 308 316 306 299 297 299 297 296 295 294 294 309 322 323 324 323 320 321 320 320 320 321 322 325 326 325 327 327 327 326 326 326 319 327 328 327 329 329 324 315 317 313 314 314 312 308 311 311 308 305 305 308 309 308 307 303 303 302 298
305 303 305 310 317 321 323 323 323 309 318 314 315 315 314 317 317 315 317 315 315 314 316 317 310 319 319 320 318 317 303 295 295 296 294 294 296 311 319 321 322 324 325 324 323 322 321 322 323 323 324 326 326 326 325 326 326 327 328 328 326 325 313 318 309 320 313 314 312 310 307 307 307 308 305 304 303 303 304 303 305 303 300 298 301
305 296 291 292 297 311 316 315 317 319 320 319 319 318 313 314 316 315 316 317 314 314 314 316 317 315 317 320 326 320 312 318 318 317 315 313 312 314 317 320 321 322 323 324 324 322 321 321 321 323 324 324 322 324 324 325 326 327 328 326 326 325 321 315 312 309 310 309 308 309 306 307 306 306 305 304 302 302 301 301 302 303 302 301 302
302 303 298 293 302 304 305 308 310 313 310 316 318 319 319 319 320 317 319 317 317 316 319 318 317 318 318 322 321 327 324 321 320 321 322 323 318 318 318 319 321 321 321 323 323 323 321 320 321 322 323 323 323 324 324 325 326 325 326 324 320 312 316 315 311 311 307 303 306 305 305 304 305 304 303 303 303 302 300 300 300 301 302 301 300
302 301 296 295 295 303 301 303 304 305 306 306 310 313 313 312 315 315 321 321 322 320 320 320 322 319 308 297 290 297 321 322 322 322 323 324 323 322 319 319 319 320 319 319 321 322 323 321 320 319 320 320 321 321 322 322 322 322 321 316 316 313 314 314 311 307 303 301 302 302 303 303 301 301 300 301 299 300 300 300 299 300 299 298 298
301 300 300 300 299 301 301 300 302 300 302 303 304 304 304 305 306 308 308 310 308 311 315 314 314 312 300 291 293 292 311 319 320 317 321 319 318 318 316 316 316 316 317 317 318 317 318 318 319 319 318 317 317 317 317 318 319 320 318 314 312 304 305 305 302 300 298 300 299 299 300 300 300 300 300 298 300 299 299 299 298 295 295 294 293
299 300 300 299 300 299 299 300 300 301 301 301 301 297 300 303 304 303 303 302 303 304 306 305 305 306 304 296 296 296 313 313 305 310 311 312 312 311 312 312 313 314 315 316 317 317 316 315 315 315 314 315 316 313 312 311 311 311 312 308 305 304 303 301 300 299 299 299 299 297 296 297 297 298 299 298 298 297 297 296 294 294 293 293 293
298 297 297 296 298 298 298 300 299 299 299 296 297 298 298 301 301 302 303 303 303 303 303 303 304 305 306 305 303 306 308 307 308 309 308 307 308 308 309 310 311 312 312 312 313 313 312 312 311 313 314 314 315 315 315 314 314 312 310 309 304 302 302 300 298 299 299 299 299 297 296 296 296 297 295 295 295 294 294 294 294 294 293 293 292
298 296 296 296 296 296 297 297 297 297 295 297 299 299 298 299 298 298 299 299 299 300 301 301 302 303 303 304 305 305 305 305 302 306 305 305 305 307 308 309 309 310 310 309 310 310 310 309 310 309 310 311 312 313 313 314 314 313 312 309 303 301 300 300 301 300 301 298 298 297 297 296 297 297 296 295 295 295 295 293 293 291 292 292 291
298 297 295 295 294 294 294 295 293 295 295 295 296 296 297 298 297 296 295 297 297 297 298 299 300 300 301 302 302 301 303 303 302 301 301 304 306 306 307 307 308 308 308 308 309 310 309 309 307 306 306 309 311 312 312 312 313 313 313 312 311 310 309 308 308 304 302 300 297 298 297 296 296 296 294 295 295 295 294 293 293 294 294 293 292
297 296 296 296 296 294 293 293 293 292 293 292 292 293 293 294 294 293 292 293 294 295 295 297 297 297 297 298 299 300 300 300 300 300 301 303 304 304 304 304 306 307 308 308 309 309 310 309 309 307 307 308 309 310 310 311 311 311 310 311 311 310 311 310 308 305 305 304 300 298 297 297 296 296 294 294 294 294 294 293 293 292 292 292 292
297 296 296 295 295 295 294 294 293 290 292 291 291 291 291 292 292 292 292 292 292 292 292 293 293 295 295 295 296 297 297 298 297 297 299 301 302 302 303 303 302 303 303 303 304 304 304 305 307 307 307 307 309 310 311 311 310 310 311 312 312 312 309 303 310 309 307 304 302 300 299 297 296 295 295 294 294 294 293 293 292 292 292 292 292
298 296 295 294 294 293 293 293 293 293 292 292 291 291 290 291 290 291 291 291 291 290 291 290 291 292 293 292 293 293 294 294 296 296 297 298 298 299 300 300 300 303 302 302 302 302 302 302 301 302 304 305 306 306 306 306 307 308 308 309 305 294 296 296 302 309 303 305 302 302 300 298 295 293 293 293 293 293 293 292 292 292 292 292 292
298 297 296 294 294 293 293 294 293 293 292 292 292 291 290 290 290 290 290 290 290 290 290 290 289 290 290 289 289 291 291 292 293 294 294 295 296 297 297 298 299 300 300 300 301 302 301 300 301 301 301 302 303 303 303 303 303 304 306 304 291 291 292 291 293 296 302 303 301 299 297 297 295 293 293 293 293 292 292 292 291 291 292 291 291
297 297 296 296 295 294 293 293 293 292 292 291 291 290 289 290 290 290 290 290 289 289 289 290 290 289 289 289 289 289 289 290 291 291 292 293 293 294 294 294 295 296 298 298 299 299 300 300 299 298 298 295 299 300 300 298 296 294 290 288 288 289 289 292 300 292 294 297 301 298 296 294 293 292 293 293 293 293 291 291 291 291 292 292 291
Wind_Speed
18 17 15 17 18 17 17 17 17 14 15 16 15 15 13 12 12 12 11 11 10 10 11 13 13 11 11 11 12 12 12 12 11 11 13 14 13 12 12 12 12 11 11 12 11 10 11 11 11 9 8 8 7 5 5 6 6 5 6 5 7 7 8 7 6 5 4 3 4 6 7 9 10 11 11 9 10 10 12 10 12 11 11 9 10
18 19 16 16 19 19 19 17 17 15 16 16 16 14 16 13 12 13 15 12 13 13 13 11 10 11 12 13 13 13 13 13 13 12 14 14 14 11 12 13 13 13 12 13 12 10 10 12 11 10 9 9 8 8 6 6 7 7 7 7 7 7 7 6 6 7 6 4 6 6 7 9 10 12 12 11 10 12 14 11 9 10 10 10 10
15 16 15 16 18 18 17 16 16 17 17 16 16 16 16 16 13 13 14 13 14 15 13 12 12 12 13 13 14 14 14 13 13 14 14 15 15 14 13 13 13 13 13 13 13 12 12 11 12 10 8 10 9 8 5 7 8 8 9 7 7 7 6 7 8 7 8 6 8 7 8 9 10 10 12 11 10 12 13 12 11 10 10 11 10
13 15 15 17 17 17 17 17 18 17 17 15 16 15 14 15 14 16 16 12 14 14 15 15 13 13 13 13 14 14 13 13 15 15 15 15 15 15 14 14 13 13 13 13 13 13 13 12 12 11 10 11 10 8 8 8 7 7 7 7 7 8 8 8 9 7 7 7 8 8 8 8 10 10 10 10 10 12 12 10 10 11 12 11 11
11 14 15 17 17 17 17 17 17 18 18 17 17 17 16 16 15 16 15 15 14 13 13 13 13 13 12 13 14 14 14 14 15 16 15 15 15 15 14 14 13 13 13 13 13 13 13 13 12 12 12 11 9 8 9 10 9 9 8 8 7 6 6 7 7 9 8 9 7 7 7 8 10 9 11 11 11 11 12 11 11 11 12 11 10
10 11 14 15 16 18 18 17 18 19 19 19 18 17 17 17 16 14 15 16 15 13 13 13 13 14 13 13 13 13 13 13 15 15 15 15 15 14 14 14 13 13 13 13 13 13 13 14 13 12 12 12 11 10 10 11 9 9 9 8 7 7 7 7 8 9 8 7 7 8 8 9 10 9 11 12 12 11 11 11 10 11 12 11 10
10 11 12 15 15 17 17 18 18 18 17 17 17 17 18 17 17 16 15 16 16 15 13 14 13 14 14 13 13 13 13 12 13 15 15 15 15 15 14 14 12 11 12 14 13 13 14 14 13 13 13 12 11 10 10 10 9 10 9 8 8 7 7 7 8 8 8 8 8 9 9 9 10 10 11 12 11 11 12 11 11 11 11 12 11
11 12 12 13 15 17 17 18 18 18 17 17 17 18 18 17 17 17 16 16 15 16 15 13 12 12 13 14 14 12 12 13 14 16 15 14 14 14 13 12 11 11 12 13 13 13 14 14 14 14 13 13 10 10 10 10 9 10 9 8 8 8 8 8 9 8 9 10 10 9 10 10 10 10 9 12 12 12 12 12 11 11 11 11 12
12 12 13 13 15 17 17 17 16 17 17 17 18 18 18 17 17 17 16 15 14 16 16 15 14 14 14 13 14 13 14 14 14 15 15 15 14 13 12 12 11 12 13 13 13 13 14 13 14 14 13 12 13 9 10 10 10 10 9 9 8 9 9 8 10 10 10 11 11 9 10 10 10 11 11 11 13 12 11 11 10 10 10 10 11
13 13 14 14 14 15 17 16 16 17 18 18 19 18 17 17 17 17 17 17 15 15 15 16 15 14 14 15 14 13 13 13 13 17 14 11 12 10 11 12 13 14 13 12 13 13 14 13 12 13 11 10 13 13 13 13 13 9 8 10 9 10 10 10 10 11 11 12 11 11 11 11 11 12 11 11 10 9 10 11 10 10 10 9 9
13 14 15 14 14 14 15 17 17 18 18 18 18 19 19 16 16 17 17 17 16 15 14 16 16 14 15 14 15 13 13 12 16 19 19 17 13 12 12 12 13 14 12 12 12 13 13 14 13 8 8 8 11 14 14 15 14 11 4 8 11 11 11 12 11 11 12 11 10 11 11 11 11 11 11 10 11 11 10 11 10 10 11 10 10
14 14 15 15 15 15 15 17 19 18 18 19 19 19 18 18 18 17 17 17 16 15 16 17 17 15 13 14 14 13 12 13 18 19 19 18 15 12 12 12 12 12 12 13 13 13 13 13 12 9 10 14 12 10 12 15 16 14 9 7 11 11 9 10 12 12 12 11 11 11 11 11 11 11 10 11 11 11 10 10 11 11 11 11 10
15 15 15 15 16 15 15 16 18 18 18 18 18 18 18 18 19 19 19 17 16 17 17 17 16 15 14 15 14 14 12 15 18 19 18 18 17 14 13 13 11 12 13 14 15 14 12 12 11 9 11 11 13 13 11 12 13 16 12 8 8 10 11 11 10 8 8 13 11 11 12 11 11 11 11 11 10 12 11 10 10 11 11 10 10
16 17 16 16 16 16 16 17 18 18 18 18 18 18 19 18 18 18 16 17 17 18 17 18 18 17 16 15 14 13 13 14 19 19 19 20 19 16 12 11 10 13 15 15 15 15 13 11 10 12 12 12 14 14 14 15 14 12 10 9 10 11 11 11 12 14 10 9 12 12 10 10 10 9 11 12 12 12 11 11 10 10 11 11 9
18 17 17 17 17 17 17 17 18 18 19 18 18 19 19 18 18 17 16 17 18 18 18 18 18 17 17 15 14 13 11 18 20 20 20 21 21 16 11 11 11 11 12 15 15 13 13 12 14 15 14 13 13 15 14 14 13 12 13 13 13 12 14 14 14 12 11 9 11 13 11 9 9 8 10 11 12 10 10 11 11 10 9 8 5
19 18 18 18 18 18 18 17 17 18 19 19 19 19 18 18 18 17 15 15 15 16 16 17 18 17 17 16 14 14 10 20 21 21 21 21 20 12 11 13 12 11 11 11 12 12 12 14 14 14 16 16 15 17 15 15 14 13 13 12 12 12 12 14 16 15 15 15 13 12 10 3 6 9 8 11 10 10 8 8 9 10 10 10 10
21 20 19 19 19 19 19 19 18 18 19 19 19 19 18 18 17 16 16 16 16 17 17 16 16 18 18 17 16 13 11 17 22 23 22 22 15 11 12 13 11 12 10 13 12 12 13 14 14 10 13 15 15 19 15 16 13 13 12 12 12 11 11 11 15 18 16 16 14 9 5 5 6 5 6 11 10 10 9 9 11 11 12 13 12
21 21 20 20 20 19 19 19 19 18 18 20 19 17 17 16 17 15 17 16 16 17 16 16 16 16 17 17 15 13 11 15 21 21 21 21 17 13 13 12 11 11 10 11 11 11 14 14 14 12 11 13 15 20 18 15 13 14 13 13 13 14 12 11 9 11 16 15 14 11 5 2 1 4 3 9 11 9 11 13 13 11 13 13 13
23 21 21 20 20 20 19 20 19 18 19 19 17 18 18 17 15 16 16 16 16 15 15 15 16 16 16 16 14 14 10 14 20 19 20 20 16 10 12 12 12 13 12 10 9 9 11 10 14 13 12 11 19 21 21 17 12 13 14 14 14 14 13 13 12 12 12 12 13 11 10 8 6 7 8 9 10 11 13 13 13 13 14 13 14
24 21 20 20 19 20 18 19 18 18 18 18 17 18 16 15 16 15 17 15 14 15 16 15 16 15 16 16 13 13 12 9 16 21 21 21 19 13 13 12 13 14 13 11 11 12 12 12 12 16 14 12 18 21 22 21 15 13 13 13 14 15 13 13 14 12 12 13 14 16 17 16 14 12 12 10 9 12 13 13 15 14 14 13 13
23 22 19 19 20 20 19 19 19 18 16 16 16 16 15 15 15 16 16 14 15 15 16 15 15 15 15 16 15 16 13 12 13 20 21 22 22 18 13 13 12 11 11 11 12 12 12 13 12 15 18 13 15 19 21 22 19 14 15 14 15 12 11 12 13 12 12 12 12 12 13 14 14 14 14 15 13 12 13 14 16 16 15 14 13
21 23 23 20 20 20 20 18 17 15 15 16 17 18 17 17 16 17 15 14 17 16 16 16 15 15 15 15 15 17 15 14 12 18 22 22 23 22 13 14 13 12 11 12 12 13 13 13 13 13 20 18 15 17 21 22 24 15 16 16 13 9 10 11 11 11 14 12 11 12 13 13 13 15 15 15 15 14 13 14 14 17 17 16 13
21 23 23 21 20 20 20 20 15 13 14 16 17 18 17 18 17 16 16 17 16 16 17 16 15 14 14 14 13 14 14 12 19 16 20 22 24 23 19 12 14 12 12 13 13 13 12 13 14 13 19 19 18 19 20 23 18 16 20 14 12 13 12 12 12 13 14 14 13 13 13 14 15 15 14 15 15 15 14 13 14 15 14 14 14
20 22 21 20 21 20 21 21 17 14 16 16 18 18 18 18 16 13 14 14 13 16 16 14 12 13 15 13 12 11 11 12 15 19 17 22 22 23 22 17 11 14 14 13 12 13 13 14 9 16 17 18 20 19 18 18 17 23 19 16 14 12 11 14 12 13 13 14 15 14 14 14 15 14 13 13 13 13 13 13 13 15 14 13 14
19 21 21 20 20 20 20 19 17 15 15 16 17 18 18 16 14 13 15 15 16 17 15 12 11 12 14 12 12 12 12 12 12 16 22 20 19 21 20 21 18 14 13 14 13 13 10 5 9 16 16 18 20 20 17 19 22 20 20 21 12 7 12 13 13 14 15 14 15 14 13 12 12 12 11 11 11 11 12 11 12 12 13 13 13
18 21 20 19 20 21 22 20 18 16 16 14 16 16 17 16 15 15 16 15 14 16 15 13 14 14 14 12 12 12 13 11 10 10 12 14 14 18 20 19 19 17 14 12 13 13 6 5 11 13 14 13 10 9 10 12 19 18 16 12 8 10 10 12 12 15 17 17 15 14 12 11 11 11 11 10 11 12 12 11 11 11 11 11 12
17 18 18 19 19 21 19 16 16 16 16 14 15 16 16 16 13 11 13 14 8 1 1 7 12 12 12 12 11 12 11 10 10 10 9 7 7 10 10 9 11 11 11 11 14 12 6 3 3 7 6 16 16 16 16 16 12 10 9 9 11 11 12 12 14 14 13 13 14 12 11 11 10 10 11 12 12 11 11 11 11 11 11 11 11
16 17 18 16 16 17 15 16 16 14 15 15 15 15 14 13 10 8 9 7 7 6 7 9 10 11 13 12 12 11 11 11 11 11 11 11 10 8 8 8 9 9 12 10 12 10 8 3 4 4 4 6 7 7 8 9 10 9 9 10 11 12 13 13 13 14 14 13 12 11 10 11 12 11 11 12 12 12 12 12 12 12 12 12 11
15 15 15 13 11 13 16 16 14 13 14 15 15 15 15 12 12 10 10 11 11 13 13 12 12 12 14 12 12 11 10 11 11 9 12 14 13 11 11 11 11 12 15 16 9 7 7 5 5 5 6 7 6 8 9 9 9 10 11 10 11 11 12 13 15 15 14 13 13 12 11 11 11 11 11 12 12 12 12 12 12 12 12 13 14
12 12 11 10 10 12 15 13 13 12 14 14 15 14 12 13 12 12 12 13 18 21 14 12 14 15 12 10 10 10 10 10 11 14 15 18 17 17 15 16 16 15 15 17 12 9 10 10 9 9 10 10 12 12 11 11 11 11 11 12 11 12 13 13 14 15 14 14 13 12 12 11 11 12 12 12 11 12 13 13 12 12 13 13 13
8 8 7 8 9 10 10 10 11 13 13 13 13 14 12 10 7 5 3 15 14 13 11 10 8 4 7 7 7 7 11 13 17 18 16 18 20 20 17 17 18 14 13 12 11 11 9 9 9 12 12 13 13 15 13 10 10 10 11 11 12 13 12 13 14 12 13 14 13 12 11 12 13 12 13 12 12 11 11 11 12 12 13 13 13
7 7 8 8 7 7 8 10 11 11 11 12 13 13 12 12 8 5 6 7 12 13 11 4 8 11 10 6 7 9 6 11 17 18 18 17 17 18 16 11 11 13 15 15 6 7 12 11 12 12 13 14 14 14 13 12 10 11 10 11 11 12 13 14 14 14 14 14 12 11 13 14 14 12 12 11 9 11 12 12 13 13 13 13 13
8 4 2 4 5 7 7 8 10 10 11 12 11 11 12 12 12 10 2 7 7 9 7 5 4 4 6 6 5 3 3 8 10 10 10 11 9 6 8 10 11 12 14 10 7 5 10 12 12 13 14 14 15 15 15 14 12 11 12 13 13 13 13 14 14 14 14 14 13 13 13 12 13 11 7 10 11 12 12 12 13 13 12 12 13
8 7 7 5 3 5 5 8 9 9 8 9 10 11 11 12 12 11 9 7 4 2 3 6 7 4 6 6 7 7 5 3 11 9 7 7 9 11 10 6 9 14 15 9 11 10 11 14 13 12 14 16 16 15 15 14 14 16 17 15 15 15 14 14 13 13 11 11 12 10 12 10 9 7 8 13 12 12 13 12 11 12 13 14 12
8 6 6 7 5 2 2 5 5 5 4 6 8 10 9 10 10 11 13 11 9 10 10 8 8 10 8 8 10 9 7 2 6 7 10 10 11 12 13 8 5 4 8 10 12 13 13 13 14 15 14 15 17 16 16 16 14 15 15 16 15 14 13 12 11 11 13 13 10 7 6 8 10 11 9 10 10 11 10 11 14 14 14 13 14
12 11 9 7 6 5 5 5 4 4 6 10 9 7 6 5 6 5 5 6 6 9 9 10 9 10 15 12 9 5 4 2 2 5 8 11 12 14 7 7 9 8 9 11 13 13 13 14 13 14 14 14 14 15 14 15 15 16 15 13 12 13 13 16 13 11 12 12 12 13 11 9 11 8 10 11 13 13 13 14 14 13 12 11 9
13 12 10 10 9 8 7 6 7 7 7 6 3 6 8 11 10 10 11 12 13 12 10 10 9 5 4 6 9 6 5 5 7 8 11 12 15 11 8 9 9 9 11 12 12 13 14 14 14 13 14 12 13 14 14 14 14 13 12 15 16 15 16 15 12 8 8 7 8 10 10 9 12 13 11 12 11 11 12 13 12 10 10 9 7
15 13 11 10 9 8 8 7 8 7 6 6 4 3 1 2 5 6 6 7 6 7 8 8 7 8 10 8 9 7 4 6 7 5 5 7 6 9 11 10 10 10 10 10 11 13 14 13 13 12 11 13 14 12 12 13 12 12 13 14 15 15 12 9 11 11 8 8 7 7 9 9 9 9 9 12 12 11 10 7 9 9 8 9 8
13 17 19 16 13 10 9 9 9 8 8 6 4 4 3 3 2 3 4 5 5 6 6 7 8 8 8 5 6 8 9 5 5 5 6 7 8 9 10 10 11 10 10 11 10 11 12 13 12 10 12 12 11 12 10 10 11 13 14 14 15 14 8 4 4 5 5 6 5 7 8 7 6 7 10 10 11 10 10 10 10 8 10 10 9
15 14 15 19 12 12 10 10 10 9 9 8 7 7 5 4 4 5 5 5 6 6 6 6 8 8 4 5 2 3 7 7 8 7 7 8 8 8 9 10 11 11 11 12 12 12 11 11 11 11 11 11 10 9 9 9 9 11 12 8 6 5 5 5 4 5 6 6 6 4 5 8 9 8 7 10 10 10 10 11 11 10 9 5 7
13 13 13 14 13 12 12 12 11 10 9 8 7 7 7 8 8 8 7 6 5 5 5 5 3 7 8 8 9 9 5 6 6 7 7 7 5 7 8 9 9 9 9 9 9 9 8 8 7 7 7 7 7 7 7 8 7 6 7 5 7 5 4 7 6 5 5 5 5 6 7 7 6 7 9 10 11 10 8 7 8 7 6 5 6
13 13 13 12 14 13 12 12 11 12 11 11 11 9 7 7 7 6 6 6 6 6 5 5 5 4 8 10 8 6 3 6 6 6 5 3 3 4 5 6 6 6 6 7 6 5 4 4 3 3 5 6 6 6 4 5 4 5 6 4 4 1 2 3 2 4 4 4 5 6 6 6 7 8 9 8 6 7 6 6 3 2 4 4 4
14 13 13 12 13 12 12 11 12 12 13 12 11 10 9 9 9 8 8 7 6 5 4 4 5 4 6 8 6 3 1 2 2 2 2 2 2 2 2 3 4 5 6 7 7 6 5 4 4 4 4 4 5 5 6 6 6 6 6 6 5 4 5 4 4 4 4 5 5 6 7 6 6 6 6 5 5 5 6 6 4 4 5 6 6
12 12 12 12 12 11 12 12 13 12 11 11 12 12 11 10 10 9 9 9 8 8 7 7 6 6 6 7 8 8 6 6 5 5 5 4 4 3 3 3 3 2 2 3 3 2 1 3 3 3 4 5 5 6 6 6 6 7 7 6 3 4 4 4 5 5 5 6 7 7 7 7 6 6 6 7 6 8 8 8 8 9 8 9 9
12 12 12 12 12 11 11 13 13 13 13 12 13 13 12 11 10 10 10 11 10 10 9 9 8 9 9 9 9 9 9 8 7 6 6 5 4 4 4 4 3 3 2 2 1 1 2 3 3 3 3 3 4 5 6 6 7 6 5 5 5 4 4 5 6 6 6 6 5 4 4 5 7 7 6 5 6 8 5 7 8 8 8 7 9
10 10 11 11 12 12 11 10 12 12 12 12 11 11 10 10 11 12 11 11 11 10 9 9 9 9 9 9 8 8 8 7 7 7 5 5 5 5 5 4 4 5 4 4 4 3 2 1 1 1 2 3 3 4 4 5 5 5 5 6 7 7 5 5 5 4 3 4 5 5 5 5 6 5 7 5 6 7 6 5 5 6 7 7 8
10 10 10 9 9 10 11 12 13 11 11 11 12 12 10 10 10 10 11 12 12 11 10 10 8 9 9 8 8 8 8 8 7 7 7 8 9 7 7 7 6 7 6 6 6 5 4 3 1 2 3 4 4 3 4 3 4 4 4 4 5 5 4 2 2 4 5 6 4 3 4 5 5 4 6 5 3 5 7 6 6 8 6 4 5
10 11 11 11 10 10 10 11 11 11 11 12 11 10 10 9 10 11 10 11 12 11 10 10 9 8 8 9 8 8 8 8 8 8 8 8 9 9 8 9 8 8 8 8 8 7 7 7 7 6 6 5 4 4 3 3 3 4 4 4 3 3 1 2 5 5 5 6 6 5 5 6 4 5 5 6 5 6 7 6 6 5 5 6 4
10 10 11 11 10 11 10 10 10 10 10 9 10 10 9 9 10 10 10 11 10 10 10 9 7 8 8 9 8 9 9 9 9 10 9 9 9 9 9 8 8 8 7 7 7 8 9 8 8 7 6 5 5 6 6 6 6 5 5 5 5 6 2 4 7 5 3 5 5 5 4 4 4 5 5 6 6 6 6 6 7 7 5 6 7
9 10 10 11 11 10 9 9 10 10 10 9 9 8 9 9 9 9 10 9 10 10 9 9 9 9 10 11 11 10 10 9 9 9 10 9 10 9 9 9 10 9 8 8 8 8 8 8 8 8 8 7 7 7 7 7 8 7 6 6 7 4 3 5 6 0 4 4 4 4 5 5 5 4 5 6 6 7 7 7 7 5 6 8 6
8 9 9 10 10 10 11 11 11 10 11 10 10 10 10 10 10 9 8 9 9 8 8 7 8 9 9 9 9 9 9 8 8 9 9 9 9 10 10 10 10 9 9 9 9 10 9 9 9 9 9 8 8 8 7 7 7 7 6 6 5 3 1 1 1 3 4 2 4 4 4 4 5 5 6 5 6 6 7 7 7 6 5 5 5
Wind_Direction
240 229 222 219 217 218 221 223 224 220 219 220 224 224 218 204 203 200 201 198 187 188 197 196 191 191 192 194 194 192 196 197 197 206 218 219 218 216 215 215 220 221 222 222 221 225 228 236 239 235 218 214 230 225 221 214 209 223 235 217 214 207 225 243 244 217 143 256 199 197 185 185 182 186 184 182 154 180 200 187 144 174 180 183 174
227 229 224 223 223 222 222 223 223 223 218 219 221 224 223 213 204 204 212 192 189 196 196 192 190 191 198 199 200 199 196 196 194 200 213 218 217 215 214 214 217 220 218 219 216 217 223 232 239 238 220 209 217 226 219 217 206 210 216 212 208 217 232 251 233 235 185 193 212 187 186 189 195 189 176 188 171 188 194 191 167 190 195 193 182
227 227 226 226 225 223 222 223 222 220 219 219 219 223 226 220 211 207 208 198 197 201 195 195 194 195 199 202 206 208 199 202 207 204 207 215 216 213 212 212 214 218 219 221 219 213 215 220 229 233 220 222 228 236 214 208 203 210 216 209 210 216 222 216 227 219 202 181 204 195 196 190 202 191 189 190 186 189 194 195 192 187 198 198 192
240 228 226 227 225 223 221 221 220 218 217 215 214 212 218 223 216 220 221 204 198 202 203 199 197 196 199 203 207 209 200 205 213 213 212 209 213 214 211 211 211 212 218 220 220 220 217 215 218 220 214 218 228 226 207 211 206 208 211 206 211 221 218 213 224 233 203 193 202 205 190 191 205 189 193 179 185 195 197 198 197 188 197 195 205
254 241 231 227 225 224 221 218 218 217 216 216 213 214 216 219 218 219 219 217 203 196 197 194 196 196 201 206 207 206 202 204 215 216 217 216 215 214 211 209 211 211 215 222 223 223 220 221 217 216 210 217 218 216 205 197 196 197 201 206 221 228 223 218 216 218 210 201 197 215 190 193 202 192 188 185 189 194 201 199 198 201 202 200 205
259 252 239 233 227 223 223 221 218 217 216 216 216 217 220 220 217 215 220 219 212 206 194 195 199 196 200 206 212 210 206 202 214 219 217 215 215 214 214 211 210 213 216 220 223 224 225 223 222 219 209 208 212 208 204 206 205 201 199 209 221 224 222 218 218 215 221 209 192 197 190 196 194 194 191 189 185 191 195 197 198 202 199 204 209
254 255 250 239 230 225 223 222 220 219 215 214 215 218 219 219 218 215 214 218 214 212 204 194 197 201 199 200 203 206 207 209 213 218 215 213 213 211 209 209 208 213 220 222 225 225 225 224 224 221 217 208 213 208 205 202 200 202 201 213 229 230 216 217 213 211 211 207 201 198 194 202 198 192 195 193 195 196 190 194 200 198 205 203 204
248 247 249 245 236 227 223 221 221 220 218 216 214 216 218 218 217 217 215 214 215 214 212 205 201 201 200 199 202 202 206 210 213 214 214 213 209 209 202 201 203 213 217 224 224 225 223 224 223 223 219 206 203 203 202 200 195 198 201 215 226 224 214 211 212 210 206 205 207 197 202 194 196 196 185 188 195 201 202 202 195 191 197 201 213
240 240 239 242 239 232 224 222 220 218 217 215 214 214 216 217 216 215 213 213 214 216 216 213 206 205 207 203 201 206 211 211 212 213 214 212 209 199 195 196 203 215 217 219 223 224 225 224 225 225 219 213 184 195 190 192 191 198 203 209 219 220 214 206 208 206 204 205 206 203 202 200 195 189 182 186 195 194 189 194 198 194 191 192 202
237 235 234 235 240 239 228 222 220 217 215 214 214 213 214 214 213 213 213 213 214 215 215 215 211 206 206 206 205 204 209 214 195 186 185 194 196 194 194 198 206 216 218 218 218 221 222 223 223 223 205 184 169 172 174 189 209 214 211 198 208 205 209 208 206 206 206 207 208 203 203 203 197 189 188 193 193 190 186 191 200 192 191 198 198
234 235 234 231 232 238 237 226 220 218 216 214 213 214 213 211 210 211 212 212 213 209 211 214 214 209 205 202 200 202 205 208 178 178 180 183 191 191 194 198 203 211 213 215 217 216 219 221 222 167 157 155 170 168 173 190 202 213 234 194 192 196 198 206 210 207 211 218 210 205 204 202 198 190 194 188 192 194 189 189 196 197 196 192 198
236 234 234 233 229 229 234 232 221 217 216 213 212 213 212 212 210 210 210 210 208 210 210 213 211 207 203 200 199 200 201 186 169 179 177 178 190 192 196 199 193 195 204 211 216 216 216 220 219 190 195 205 199 180 184 193 197 205 200 200 198 211 220 211 206 208 216 217 213 208 203 207 196 191 193 189 189 192 192 191 197 199 196 203 206
235 234 233 233 230 226 227 233 227 217 213 212 211 211 210 211 211 210 211 209 208 209 211 210 208 205 202 201 197 196 201 175 171 179 179 178 188 197 205 208 197 198 203 206 211 213 217 217 214 205 205 190 203 195 189 197 202 200 190 194 215 215 224 246 268 263 231 222 221 213 208 204 200 194 194 187 184 190 191 197 199 204 207 211 218
235 233 231 230 231 226 222 225 231 223 215 210 208 207 209 210 209 209 209 208 208 209 210 209 208 205 203 203 199 197 204 168 172 177 182 183 188 197 211 201 201 207 211 208 209 212 210 209 199 209 207 193 207 202 199 204 200 201 196 194 196 207 220 230 247 258 261 253 221 222 209 212 208 195 188 183 184 193 193 202 198 203 210 219 217
236 232 230 228 228 226 222 220 224 225 218 214 211 208 207 207 208 208 207 205 205 207 206 207 208 205 199 199 197 194 197 163 173 175 181 184 188 196 206 200 205 209 218 218 212 205 199 201 205 207 207 202 203 204 200 200 195 196 200 199 201 200 205 209 214 226 230 231 230 227 223 216 220 202 184 186 190 195 195 202 201 207 213 213 219
235 231 228 225 224 222 219 217 218 221 221 215 213 209 206 204 204 205 203 203 206 207 207 210 208 206 201 199 197 193 172 159 166 173 178 185 181 190 201 206 211 213 218 229 223 215 210 209 208 206 207 207 195 200 192 192 187 189 196 203 207 208 206 205 203 209 219 220 224 230 230 278 225 213 192 187 196 199 198 211 216 219 219 221 220
234 230 227 223 221 220 216 213 214 216 218 217 214 211 206 202 204 204 203 203 202 204 206 205 207 207 205 203 200 195 176 166 168 174 176 177 170 190 195 204 215 217 215 223 224 219 219 217 214 204 206 215 177 181 185 185 179 180 186 197 208 212 213 203 191 196 211 235 245 258 350 28 335 213 151 187 199 199 205 205 216 213 218 225 225
233 231 227 221 217 218 216 210 210 211 211 213 214 212 208 205 203 203 205 199 201 201 203 203 203 204 203 201 200 193 186 163 168 170 170 170 175 183 192 199 211 219 217 221 227 223 223 216 215 203 193 202 161 176 186 190 186 180 183 192 202 213 213 206 192 197 201 213 229 243 257 336 15 308 201 191 192 204 206 218 216 213 224 225 232
232 230 227 223 216 215 216 211 208 208 209 206 206 209 207 204 205 205 206 204 203 203 204 204 201 201 198 197 192 194 187 159 166 165 168 171 177 185 191 201 206 214 218 219 219 228 227 206 214 222 208 185 165 177 184 195 199 184 188 196 206 212 211 203 202 196 198 205 216 217 230 215 219 218 199 195 206 205 216 226 220 219 227 229 236
231 228 229 226 221 213 212 211 206 205 206 203 201 206 204 203 205 203 205 204 203 205 204 208 204 202 194 192 183 194 194 162 167 166 166 172 181 190 193 197 208 212 216 219 223 225 230 233 202 214 223 189 172 180 185 195 205 195 195 203 209 215 209 207 207 204 195 202 208 213 219 220 221 219 222 200 201 213 220 224 225 225 227 234 235
234 229 228 227 224 217 210 208 200 199 203 204 201 202 203 200 201 204 204 205 206 205 205 205 202 200 196 191 182 188 197 170 169 168 168 173 183 192 189 200 206 212 217 218 227 231 232 231 237 193 207 203 182 184 188 198 211 209 204 210 211 212 204 212 204 201 204 196 201 203 207 213 217 219 218 221 213 207 216 222 226 228 229 234 234
233 230 226 225 222 217 212 204 195 191 197 204 203 204 204 203 203 202 201 201 207 207 205 203 200 197 194 188 182 183 193 182 156 175 171 176 181 196 202 199 206 209 214 223 223 232 233 235 241 198 187 199 197 189 196 201 211 220 214 208 207 176 205 215 218 198 219 214 205 206 208 206 210 215 217 217 219 209 210 213 218 226 228 234 235
228 225 223 223 220 214 209 202 191 186 190 200 205 205 203 204 203 204 203 204 205 208 204 201 201 197 191 189 181 181 177 176 149 170 175 177 185 194 206 204 180 203 216 222 225 231 234 236 242 188 170 192 199 200 202 208 210 225 222 199 199 185 200 216 223 218 223 223 215 212 211 212 219 218 211 217 216 213 207 208 210 213 225 234 232
228 222 218 220 219 211 204 200 195 182 187 195 204 205 204 202 201 203 201 203 202 203 200 195 196 201 202 182 178 181 178 173 157 161 175 182 186 193 201 210 183 207 217 227 226 228 230 231 221 151 176 189 201 203 206 206 213 225 224 222 205 186 205 219 223 231 230 229 223 217 217 220 227 221 216 211 210 209 203 203 207 209 214 220 226
227 219 213 216 217 207 202 196 192 183 185 194 201 205 205 202 203 202 204 204 207 207 201 191 195 199 199 183 175 178 181 181 171 163 169 182 185 193 199 203 211 211 216 228 239 234 241 252 142 159 179 193 198 201 206 214 220 227 221 222 212 205 212 220 226 231 232 231 232 229 226 218 216 217 212 208 205 204 195 201 205 207 211 214 221
222 215 211 215 213 205 199 193 194 185 183 193 200 202 203 203 205 202 203 206 206 205 200 194 197 196 198 183 178 180 181 186 171 155 167 173 186 199 202 202 207 211 224 241 246 256 301 82 154 169 179 190 183 193 211 216 219 226 236 234 222 224 216 216 222 227 231 231 232 230 224 220 216 214 212 207 203 205 193 196 194 199 201 204 212
215 211 216 214 208 205 194 188 187 179 184 193 200 202 204 206 205 207 208 206 197 178 290 224 202 197 193 185 179 176 179 174 176 161 165 166 185 202 206 210 209 215 229 242 249 252 212 145 183 183 186 179 189 197 207 216 211 212 222 223 223 222 219 217 218 220 223 226 228 226 223 221 216 207 206 205 207 200 193 196 194 199 193 200 200
212 213 215 211 202 200 191 187 186 181 182 192 197 199 202 203 188 173 175 155 147 177 204 230 232 206 200 186 180 179 175 178 181 171 172 181 189 187 185 196 198 198 214 225 230 231 231 124 121 162 163 166 203 214 218 219 213 203 204 211 220 222 224 227 229 231 230 228 227 224 222 217 216 206 202 200 203 206 204 201 203 201 197 195 203
214 215 209 209 203 200 198 190 189 181 182 191 197 194 189 181 183 181 178 173 174 183 187 201 210 217 210 184 176 176 179 184 185 178 174 178 178 182 195 198 202 208 211 213 216 222 222 189 202 184 197 198 194 212 218 219 218 213 206 208 214 218 218 217 220 225 226 227 225 223 221 216 215 204 200 206 211 212 206 205 203 207 201 203 211
210 211 206 211 215 198 200 192 186 185 186 187 190 195 189 192 191 189 185 199 184 179 180 191 206 211 201 181 177 175 181 185 144 176 169 165 174 179 183 184 187 200 203 189 194 207 206 208 207 207 213 219 225 225 219 214 217 215 211 208 212 218 219 220 223 223 220 223 223 219 218 215 213 204 206 212 212 211 208 201 204 204 208 208 213
199 206 218 222 217 199 198 188 186 193 186 188 186 185 180 190 185 170 198 188 192 207 212 202 206 216 209 185 186 185 162 147 158 179 167 171 176 184 181 182 185 177 132 141 192 211 216 211 215 221 225 229 229 233 230 216 213 213 218 211 204 211 214 220 219 219 216 214 216 217 213 214 214 210 212 211 211 207 208 200 211 207 212 212 216
191 199 202 207 197 201 203 192 189 190 189 186 188 185 188 178 166 63 49 149 170 179 184 204 203 219 222 208 184 196 173 161 166 172 179 178 185 188 191 164 152 151 159 156 167 202 216 219 222 224 228 231 232 233 233 228 215 216 216 216 212 210 208 215 213 213 211 211 208 208 213 212 212 211 210 207 199 204 203 199 203 211 213 213 217
31 41 126 167 173 194 219 203 196 196 179 184 180 186 187 187 181 176 73 46 102 134 160 180 203 222 253 280 319 342 179 193 170 145 164 184 185 161 125 142 155 156 140 176 207 202 214 222 226 228 230 233 235 236 236 231 219 215 218 218 217 215 214 216 209 216 215 213 207 207 209 213 210 207 199 200 195 203 201 201 204 208 206 215 216
42 31 10 7 138 177 203 203 188 197 189 184 190 187 188 187 185 194 193 184 143 96 150 203 215 229 260 272 279 272 283 354 59 78 99 101 109 128 134 130 146 167 174 193 210 221 224 227 225 229 232 235 238 238 235 230 229 234 236 232 233 231 221 215 210 208 216 218 218 216 209 207 193 200 205 210 204 206 203 200 200 205 208 210 214
8 111 85 8 18 63 105 179 185 162 163 187 194 189 184 189 190 179 195 208 201 188 192 200 199 196 217 232 236 241 264 4 76 85 95 112 128 135 126 127 138 207 220 226 221 228 227 225 230 231 231 233 236 238 239 236 230 230 230 235 234 229 226 222 211 196 203 213 207 214 216 210 201 204 204 199 199 198 198 202 206 208 209 206 210
8 0 4 19 20 30 24 31 61 140 175 182 189 195 196 183 203 190 214 208 228 222 212 205 197 188 207 227 235 231 230 213 143 131 125 133 141 147 171 203 212 208 205 212 221 226 233 234 233 236 236 236 238 240 238 241 241 239 236 233 231 227 225 236 217 203 202 207 209 212 207 202 209 209 206 208 208 204 204 204 204 203 206 203 204
14 4 356 356 354 5 12 22 31 22 5 19 108 162 162 180 187 185 202 201 204 212 219 208 204 116 129 218 220 216 192 141 141 146 155 158 163 176 223 221 226 225 229 230 227 232 233 235 235 240 241 239 241 244 246 244 244 241 236 239 243 239 237 230 214 202 199 202 208 203 198 196 204 207 202 207 209 210 209 208 203 200 199 189 183
24 16 6 356 346 352 5 8 25 9 6 6 359 7 26 157 182 199 207 208 213 216 219 223 230 218 209 206 167 186 152 127 115 133 142 146 166 200 217 231 230 231 228 228 231 239 238 236 237 233 241 247 247 244 243 243 239 241 243 237 237 241 230 217 206 210 203 202 205 204 208 212 208 212 210 212 211 213 209 207 201 205 201 196 196
20 17 9 4 21 11 8 4 7 3 7 354 351 341 339 321 280 237 226 231 224 231 234 241 236 234 241 212 151 125 126 172 195 211 191 192 192 205 222 228 230 232 235 238 236 235 242 241 237 238 240 241 241 239 237 238 242 246 243 242 239 239 218 206 211 214 210 213 206 210 209 209 206 210 212 215 219 214 211 210 205 199 199 197 199
23 20 15 11 25 27 28 28 21 13 7 350 349 348 333 319 291 275 261 257 253 247 247 238 237 249 291 335 319 185 217 226 234 233 219 197 192 201 221 226 229 228 228 232 236 237 237 240 241 237 237 239 237 240 238 237 238 240 243 241 230 219 215 211 199 208 213 216 222 213 210 213 213 215 214 219 219 217 213 209 211 210 205 189 191
23 22 21 20 13 31 37 38 38 33 29 20 7 356 355 349 343 339 329 321 316 304 276 277 338 41 30 1 357 359 308 280 275 270 262 259 245 223 220 227 227 228 228 233 235 241 242 239 233 233 241 244 247 247 253 258 261 269 258 244 233 230 216 215 210 210 206 207 213 218 221 219 214 208 215 218 220 219 216 214 216 219 207 190 176
24 23 23 21 21 30 34 38 41 40 42 39 35 25 18 21 20 13 360 338 342 335 350 5 358 345 27 17 24 17 310 277 281 273 271 257 247 235 229 228 230 228 228 230 234 242 246 248 245 240 240 248 258 261 272 274 268 256 254 259 244 230 216 216 199 195 201 210 214 215 218 214 210 212 217 221 215 216 209 209 194 136 139 147 149
27 26 25 22 24 23 28 36 39 44 42 40 36 30 33 37 41 42 44 41 34 28 23 35 38 39 42 27 12 4 78 357 16 351 350 327 311 277 266 252 248 245 242 240 235 234 228 224 228 231 235 239 243 244 237 238 235 234 232 231 219 205 208 213 201 197 198 208 214 213 214 211 207 208 208 200 195 188 192 182 153 145 143 141 156
28 27 27 27 22 24 25 31 38 37 40 41 46 40 34 35 36 40 45 42 39 38 42 44 51 53 50 38 43 55 50 38 32 32 30 24 18 15 1 348 321 304 285 274 272 309 279 262 252 256 257 254 255 255 252 247 240 239 237 227 216 216 214 217 210 205 201 204 209 206 205 206 203 205 203 197 186 187 189 184 181 175 168 167 165
20 19 20 25 24 21 20 28 35 35 31 33 39 38 35 32 32 32 33 39 31 34 32 34 37 51 53 52 53 58 57 51 39 33 31 25 13 13 17 7 356 360 7 22 359 11 6 357 335 324 308 290 282 277 273 266 258 252 248 243 243 232 222 217 218 214 204 203 202 191 184 180 196 199 195 190 192 195 185 186 192 181 180 183 177
21 19 18 19 19 17 17 21 30 33 29 28 29 29 24 23 30 30 29 30 31 27 21 19 20 27 40 47 47 48 51 46 38 25 15 12 25 26 14 4 359 8 6 10 6 15 359 338 352 327 324 316 327 319 308 299 293 285 270 260 256 254 237 227 229 212 192 190 201 195 190 185 194 199 195 185 192 196 188 171 169 178 181 174 178
24 26 19 22 23 22 18 18 22 24 31 28 30 27 22 19 23 27 32 29 30 29 25 19 10 18 26 29 30 37 41 43 37 25 22 34 41 38 34 25 17 19 14 13 12 15 18 35 359 344 336 324 319 318 308 308 302 297 287 283 278 274 275 242 195 193 198 201 191 191 188 198 192 189 190 189 179 179 185 177 177 171 165 152 157
25 32 31 22 23 21 24 25 28 26 26 26 26 29 27 23 28 30 28 30 30 30 30 21 9 4 21 31 26 29 32 38 37 35 25 25 29 31 30 30 33 32 26 23 21 17 20 20 20 20 22 8 3 3 360 348 331 321 316 309 289 325 321 227 245 228 218 199 191 194 195 197 191 183 177 176 180 171 174 172 169 161 151 147 148
28 31 33 26 21 21 24 24 26 27 27 24 26 28 26 27 29 27 27 27 30 34 35 20 4 10 21 27 27 26 26 27 28 29 26 22 24 23 25 22 36 41 36 31 27 29 28 27 25 17 6 3 8 15 12 8 2 357 349 330 7 8 304 243 259 248 194 194 189 182 168 158 163 176 170 174 174 165 164 160 162 154 144 154 157
25 28 36 31 29 24 19 27 29 31 26 26 25 19 17 24 26 26 24 24 28 29 28 22 18 10 20 26 28 23 24 25 25 28 29 27 24 24 23 24 27 29 28 29 31 33 32 30 30 27 23 18 23 25 22 15 8 359 354 359 348 320 272 246 262 59 159 210 171 169 172 172 166 164 162 164 157 160 161 164 156 154 155 161 157
27 28 34 37 32 30 31 29 28 27 27 24 23 24 19 18 21 22 23 25 27 20 16 11 14 14 21 23 22 21 21 19 21 25 24 25 23 25 29 28 26 23 25 27 27 25 24 25 24 20 21 17 16 20 23 22 11 356 341 349 3 28 61 254 253 188 190 164 180 168 168 149 147 153 161 160 157 158 157 150 153 152 149 155 152